TimeCST,TemperatureF,Dew PointF,Humidity,Sea Level PressureIn,VisibilityMPH,Wind Direction,Wind SpeedMPH,Gust SpeedMPH,PrecipitationIn,Events,Conditions,WindDirDegrees,DateUTC
12:15 AM,24.8,23.0,93,29.84,2.5,North,19.6,26.5,N/A,,Mostly Cloudy,360,2012-12-20 06:15:00
12:35 AM,24.8,23.0,93,29.84,1.2,North,21.9,27.6,N/A,,Overcast,360,2012-12-20 06:35:00
12:55 AM,24.8,23.0,93,29.84,0.5,North,20.7,27.6,N/A,Snow,Light Snow,10,2012-12-20 06:55:00
1:15 AM,23.0,23.0,100,29.83,0.2,North,16.1,31.1,N/A,Snow,Snow,360,2012-12-20 07:15:00
1:35 AM,23.0,21.2,93,29.82,0.2,North,21.9,32.2,N/A,Snow,Snow,360,2012-12-20 07:35:00
1:55 AM,23.0,21.2,93,29.82,0.2,North,20.7,31.1,N/A,Snow,Snow,360,2012-12-20 07:55:00
2:15 AM,21.2,21.2,100,29.82,0.2,North,23.0,33.4,N/A,Snow,Snow,360,2012-12-20 08:15:00
2:35 AM,21.2,19.4,93,29.81,0.2,North,28.8,35.7,N/A,Snow,Light Snow,360,2012-12-20 08:35:00
2:55 AM,21.2,19.4,93,29.81,0.2,North,21.9,35.7,N/A,Snow,Snow,360,2012-12-20 08:55:00
3:15 AM,21.2,19.4,93,29.81,0.5,North,23.0,34.5,N/A,Snow,Light Snow,360,2012-12-20 09:15:00
3:35 AM,21.2,19.4,93,29.80,0.5,North,21.9,33.4,N/A,Snow,Light Snow,360,2012-12-20 09:35:00
3:55 AM,21.2,19.4,93,29.80,0.5,North,20.7,34.5,N/A,Snow,Light Snow,360,2012-12-20 09:55:00
4:15 AM,21.2,19.4,93,29.79,0.8,North,24.2,32.2,N/A,Snow,Light Snow,360,2012-12-20 10:15:00
4:35 AM,21.2,17.6,86,29.78,0.8,North,24.2,33.4,N/A,Snow,Light Snow,360,2012-12-20 10:35:00
4:55 AM,21.2,17.6,86,29.78,0.8,North,26.5,32.2,N/A,Snow,Light Snow,360,2012-12-20 10:55:00
5:15 AM,19.4,17.6,93,29.77,0.5,North,25.3,33.4,N/A,Snow,Light Snow,350,2012-12-20 11:15:00
5:35 AM,19.4,17.6,93,29.77,0.5,North,26.5,33.4,N/A,Snow,Light Snow,360,2012-12-20 11:35:00
5:55 AM,21.2,17.6,86,29.78,0.5,North,24.2,33.4,N/A,Snow,Light Snow,350,2012-12-20 11:55:00
6:15 AM,21.2,19.4,93,29.78,0.5,North,25.3,38.0,N/A,Snow,Light Snow,360,2012-12-20 12:15:00
6:35 AM,21.2,19.4,93,29.78,0.5,North,25.3,35.7,N/A,Snow,Light Snow,350,2012-12-20 12:35:00
6:55 AM,21.2,19.4,93,29.79,0.5,North,29.9,38.0,N/A,Snow,Light Snow,350,2012-12-20 12:55:00
7:15 AM,21.2,19.4,93,29.79,0.8,North,26.5,36.8,N/A,Snow,Light Snow,350,2012-12-20 13:15:00
7:35 AM,21.2,19.4,93,29.80,0.5,NNW,23.0,36.8,N/A,Snow,Light Snow,340,2012-12-20 13:35:00
7:55 AM,21.2,19.4,93,29.80,0.5,North,27.6,38.0,N/A,Snow,Light Snow,350,2012-12-20 13:55:00
8:15 AM,21.2,19.4,93,29.80,0.5,NNW,23.0,35.7,N/A,Rain,Freezing Rain,340,2012-12-20 14:15:00
8:35 AM,21.2,19.4,93,29.80,0.5,NNW,27.6,40.3,N/A,Rain,Freezing Rain,340,2012-12-20 14:35:00
8:55 AM,21.2,19.4,93,29.80,-9999.0,North,28.8,38.0,N/A,Rain,Freezing Rain,350,2012-12-20 14:55:00
9:15 AM,21.2,19.4,93,29.80,0.5,NNW,26.5,36.8,N/A,Snow,Light Snow,340,2012-12-20 15:15:00
9:35 AM,21.2,19.4,93,29.81,0.5,NNW,27.6,41.4,N/A,Snow,Light Snow,340,2012-12-20 15:35:00
9:55 AM,21.2,17.6,86,29.81,0.2,NNW,27.6,43.7,N/A,Snow,Light Snow,340,2012-12-20 15:55:00
10:15 AM,21.2,17.6,86,29.82,0.5,NNW,28.8,42.6,N/A,Snow,Light Snow,340,2012-12-20 16:15:00
10:35 AM,19.4,17.6,93,29.82,0.5,NNW,25.3,39.1,N/A,Snow,Light Snow,340,2012-12-20 16:35:00
10:55 AM,21.2,17.6,86,29.82,0.5,NNW,27.6,40.3,N/A,Snow,Light Snow,340,2012-12-20 16:55:00
11:15 AM,21.2,17.6,86,29.81,0.5,North,28.8,41.4,N/A,Snow,Light Snow,350,2012-12-20 17:15:00
11:35 AM,21.2,17.6,86,29.82,0.2,NNW,28.8,39.1,N/A,Snow,Light Snow,340,2012-12-20 17:35:00
11:55 AM,21.2,17.6,86,29.83,0.5,NNW,26.5,38.0,N/A,Snow,Light Snow,340,2012-12-20 17:55:00
12:15 PM,21.2,17.6,86,29.83,0.8,NNW,29.9,39.1,N/A,Rain,Freezing Rain,340,2012-12-20 18:15:00
12:35 PM,21.2,17.6,86,29.83,0.8,NNW,28.8,41.4,N/A,Rain,Freezing Rain,330,2012-12-20 18:35:00
12:55 PM,19.4,17.6,93,29.83,0.8,NNW,29.9,41.4,N/A,Rain,Freezing Rain,340,2012-12-20 18:55:00
1:15 PM,19.4,17.6,93,29.83,0.2,NNW,29.9,42.6,N/A,Rain,Freezing Rain,330,2012-12-20 19:15:00
1:35 PM,19.4,15.8,86,29.84,0.2,NNW,33.4,44.9,N/A,Rain,Freezing Rain,330,2012-12-20 19:35:00
1:55 PM,19.4,15.8,86,29.85,0.8,NNW,29.9,46.0,N/A,Rain,Freezing Rain,340,2012-12-20 19:55:00
2:15 PM,19.4,15.8,86,29.86,0.8,NNW,32.2,40.3,N/A,Rain,Freezing Rain,330,2012-12-20 20:15:00
2:35 PM,19.4,15.8,86,29.87,-9999.0,NNW,27.6,36.8,N/A,Rain,Freezing Rain,340,2012-12-20 20:35:00
2:55 PM,19.4,15.8,86,29.88,1.2,NNW,27.6,36.8,N/A,Rain,Freezing Rain,330,2012-12-20 20:55:00
3:15 PM,19.4,15.8,86,29.88,1.2,NNW,25.3,36.8,N/A,Snow,Light Snow,330,2012-12-20 21:15:00
3:35 PM,19.4,14.0,80,29.89,0.5,NW,27.6,35.7,N/A,Rain,Freezing Rain,320,2012-12-20 21:35:00
3:55 PM,17.6,14.0,86,29.90,1.0,NW,25.3,38.0,N/A,Rain,Freezing Rain,320,2012-12-20 21:55:00
4:15 PM,17.6,12.2,79,29.91,1.8,NW,20.7,38.0,N/A,Snow,Light Snow,320,2012-12-20 22:15:00
4:35 PM,15.8,12.2,86,29.92,1.8,NW,23.0,36.8,N/A,Snow,Light Snow,320,2012-12-20 22:35:00
4:55 PM,15.8,12.2,86,29.93,2.0,NW,26.5,35.7,N/A,Snow,Light Snow,320,2012-12-20 22:55:00
5:15 PM,15.8,10.4,79,29.93,4.0,NW,21.9,32.2,N/A,Snow,Light Snow,320,2012-12-20 23:15:00
5:35 PM,14.0,10.4,86,29.95,5.0,NW,24.2,31.1,N/A,Snow,Light Snow,320,2012-12-20 23:35:00
5:55 PM,14.0,10.4,86,29.95,5.0,NW,24.2,33.4,N/A,Snow,Light Snow,320,2012-12-20 23:55:00
6:15 PM,14.0,10.4,86,29.96,8.0,NW,24.2,33.4,N/A,Snow,Light Snow,320,2012-12-21 00:15:00
6:35 PM,14.0,8.6,79,29.96,7.0,NNW,21.9,29.9,N/A,Snow,Light Snow,330,2012-12-21 00:35:00
6:55 PM,14.0,8.6,79,29.97,6.0,NNW,21.9,33.4,N/A,Snow,Light Snow,330,2012-12-21 00:55:00
7:15 PM,12.2,8.6,85,29.98,10.0,NW,21.9,27.6,N/A,Snow,Light Snow,320,2012-12-21 01:15:00
7:35 PM,12.2,8.6,85,29.99,7.0,NNW,21.9,31.1,N/A,,Freezing Rain,330,2012-12-21 01:35:00
7:55 PM,12.2,6.8,79,30.00,10.0,NNW,21.9,27.6,N/A,Snow,Light Snow,330,2012-12-21 01:55:00
8:15 PM,12.2,6.8,79,30.00,10.0,NNW,21.9,29.9,N/A,Snow,Light Snow,330,2012-12-21 02:15:00
8:35 PM,12.2,6.8,79,30.00,10.0,NNW,17.3,26.5,N/A,Snow,Light Snow,330,2012-12-21 02:35:00
8:55 PM,12.2,6.8,79,30.01,10.0,NNW,18.4,27.6,N/A,Snow,Light Snow,330,2012-12-21 02:55:00
9:15 PM,12.2,6.8,79,30.02,10.0,NNW,20.7,27.6,N/A,Snow,Light Snow,330,2012-12-21 03:15:00
9:35 PM,12.2,6.8,79,30.02,10.0,NNW,20.7,27.6,N/A,Snow,Light Snow,330,2012-12-21 03:35:00
9:55 PM,10.4,6.8,85,30.03,10.0,NNW,19.6,29.9,N/A,Snow,Light Snow,330,2012-12-21 03:55:00
10:15 PM,10.4,6.8,85,30.04,10.0,NNW,19.6,31.1,N/A,Snow,Light Snow,330,2012-12-21 04:15:00
10:35 PM,10.4,6.8,85,30.05,10.0,NNW,19.6,25.3,N/A,Snow,Light Snow,330,2012-12-21 04:35:00
10:55 PM,10.4,6.8,85,30.05,8.0,NNW,19.6,-,N/A,Snow,Light Snow,330,2012-12-21 04:55:00
11:15 PM,10.4,5.0,79,30.06,10.0,NNW,20.7,29.9,N/A,Snow,Light Snow,330,2012-12-21 05:15:00
11:35 PM,10.4,5.0,79,30.06,10.0,NNW,20.7,28.8,N/A,Snow,Light Snow,330,2012-12-21 05:35:00
11:55 PM,8.6,5.0,85,30.07,10.0,NNW,19.6,-,N/A,Snow,Light Snow,330,2012-12-21 05:55:00